Change the Weather History Date:

Monday, September 30, 2013

  Actual Average Record
Temperature  
Mean Temperature 55 °F 56 °F  
Max Temperature 64 °F 71 °F 85 °F (1932)
Min Temperature 45 °F 42 °F 28 °F (1933)
Degree Days  
Heating Degree Days 10 9  
Month to date heating degree days 133 131  
Since 1 July heating degree days 133 161  
Cooling Degree Days 0 0  
Month to date cooling degree days 128 58  
Year to date cooling degree days 814 664  
Growing Degree Days 4 (Base 50)    
Moisture  
Dew Point 37 °F    
Average Humidity 53    
Maximum Humidity 71    
Minimum Humidity 34    
Precipitation  
Precipitation 0.00 in 0.02 in 0.71 in (2007)
Month to date precipitation 1.41 0.58  
Year to date precipitation 8.83 9.60  
Sea Level Pressure  
Sea Level Pressure 29.59 in    
Wind  
Wind Speed 13 mph (South)    
Max Wind Speed 23 mph    
Max Gust Speed 30 mph    
Visibility 10 miles    
Events      
T = Trace of Precipitation, MM = Missing Value Source: NWS Daily Summary

Daily Weather History Graph

Daily Weather History Graph

Search for Another Location

Airport or City:

Trip Planner

Search our weather history database for the weather conditions in past years. The results will help you decide how hot, cold, wet, or windy it might be!

Date:

Astronomy

Sep. 30, 2013 Rise Set
Actual Time 6:56 AM PDT 6:38 PM PDT
Civil Twilight 6:25 AM PDT 7:09 PM PDT
Nautical Twilight 5:48 AM PDT 7:45 PM PDT
Astronomical Twilight 5:11 AM PDT 8:22 PM PDT
Moon 2:20 AM PDT (9/30) 4:27 PM PDT (9/30)
Length of Visible Light 12h 44m
Length of Day
11h 41m
Waning Crescent, 18% of the Moon is Illuminated
Sep 30
Waning Crescent
Oct 4
New
Oct 11
First Quarter
Oct 18
Full
Oct 26
Last Quarter

Hourly Weather History & Observations

Time (PDT) Temp. Windchill Dew Point Humidity Pressure Visibility Wind Dir Wind Speed Gust Speed Precip Events Conditions
12:40 AM 51.8 °F - 48.2 °F 88% 29.28 in 10.0 mi SSE 11.5 mph - 0.03 in   Mostly Cloudy
12:53 AM 51.1 °F - 46.9 °F 86% 29.30 in 10.0 mi South 11.5 mph - 0.04 in   Scattered Clouds
1:53 AM 51.1 °F - 43.0 °F 74% 29.31 in 10.0 mi South 16.1 mph 28.8 mph N/A   Clear
2:53 AM 50.0 °F - 37.9 °F 63% 29.37 in 10.0 mi SE 5.8 mph - N/A   Clear
3:53 AM 46.0 °F 42.5 °F 36.0 °F 68% 29.41 in 10.0 mi Variable 6.9 mph - N/A   Clear
4:53 AM 48.0 °F - 33.1 °F 56% 29.44 in 10.0 mi SSE 15.0 mph - N/A   Clear
5:53 AM 48.0 °F - 34.0 °F 58% 29.47 in 10.0 mi South 11.5 mph 25.3 mph N/A   Clear
6:53 AM 46.0 °F 40.6 °F 35.1 °F 66% 29.49 in 10.0 mi SSE 11.5 mph - N/A   Clear
7:53 AM 46.9 °F - 35.1 °F 63% 29.53 in 10.0 mi South 11.5 mph 21.9 mph N/A   Clear
8:53 AM 50.0 °F - 36.0 °F 59% 29.56 in 10.0 mi South 13.8 mph 24.2 mph N/A   Clear
9:53 AM 51.1 °F - 37.0 °F 59% 29.60 in 10.0 mi SSE 16.1 mph 23.0 mph N/A   Clear
10:53 AM 54.0 °F - 37.9 °F 55% 29.62 in 10.0 mi SSE 16.1 mph - N/A   Clear
11:53 AM 57.0 °F - 39.0 °F 51% 29.63 in 10.0 mi South 12.7 mph - N/A   Clear
12:53 PM 61.0 °F - 37.9 °F 42% 29.64 in 10.0 mi South 13.8 mph - N/A   Partly Cloudy
1:53 PM 62.1 °F - 37.9 °F 41% 29.65 in 10.0 mi SSE 13.8 mph 21.9 mph N/A   Mostly Cloudy
2:53 PM 60.1 °F - 37.0 °F 42% 29.68 in 10.0 mi SSW 13.8 mph 20.7 mph N/A   Partly Cloudy
3:53 PM 63.0 °F - 37.0 °F 38% 29.68 in 10.0 mi South 17.3 mph 24.2 mph N/A   Clear
4:53 PM 62.1 °F - 34.0 °F 35% 29.69 in 10.0 mi South 16.1 mph 21.9 mph N/A   Clear
5:53 PM 59.0 °F - 35.1 °F 41% 29.73 in 10.0 mi South 15.0 mph 23.0 mph N/A   Mostly Cloudy
6:53 PM 55.0 °F - 34.0 °F 45% 29.74 in 10.0 mi South 15.0 mph - N/A   Mostly Cloudy
7:53 PM 53.1 °F - 35.1 °F 50% 29.78 in 10.0 mi SSE 10.4 mph - N/A   Overcast
8:53 PM 52.0 °F - 35.1 °F 53% 29.79 in 10.0 mi South 9.2 mph - N/A   Overcast
9:53 PM 51.1 °F - 35.1 °F 54% 29.81 in 10.0 mi SSE 10.4 mph - N/A   Mostly Cloudy
10:53 PM 48.9 °F - 35.1 °F 59% 29.83 in 10.0 mi SSE 8.1 mph - N/A   Partly Cloudy
11:53 PM 46.9 °F - 35.1 °F 63% 29.83 in 10.0 mi South 9.2 mph - N/A   Partly Cloudy